This demonstration page uses our WeatherBlox Daily Observations layout. Learn more.

Left ArrowRight Arrow

Hourly Observations for November 23, 2020

Temp ( °F °C ) Dew Point ( °F °C ) Humidity (%) Winds ( mph kmh ) Pressure ( in mb ) Visibility ( mi km ) Precip ( " mm )
12:54 am 00:54 Clear 20 -6.7 14 -10 78 78 NNE 5 7 30.37 1028 10 16.0934 0 0
1:54 am 01:54 Clear 22 -5.6 17 -8.3 82 82 Calm 30.35 1028 10 16.0934 0 0
2:54 am 02:54 Clear 18 -7.8 14 -10 84 84 Calm 30.36 1028 10 16.0934 0 0
3:54 am 03:54 Clear 21 -6.1 16 -8.9 81 81 Calm 30.33 1027 10 16.0934 0 0
4:54 am 04:54 Clear 18 -7.8 13 -10.6 81 81 Calm 30.31 1027 10 16.0934 0 0
5:54 am 05:54 Cloudy 25 -3.9 19 -7.2 78 78 NNE 3 6 30.33 1027 10 16.0934 0 0
6:54 am 06:54 Cloudy 27 -2.8 22 -5.6 81 81 Calm 30.32 1027 10 16.0934 0 0
7:54 am 07:54 Cloudy 29 -1.7 24 -4.4 82 82 NNE 5 7 30.32 1027 10 16.0934 0 0
8:54 am 08:54 Cloudy 35 1.7 29 -1.7 78 78 S 12 19 30.31 1026 10 16.0934 0 0
9:13 am 09:13 Cloudy with Rain 36 2.2 31 -0.6 82 82 S 14 22 30.31 1026 4 6.43736 0.02 0.508
9:23 am 09:23 Cloudy with Heavy Rain 36 2.2 32 0 86 86 S 17 28 30.32 1027 1.75 2.816345 0.05 1.27
9:29 am 09:29 Cloudy with Light Rain 36 2.2 32 0 86 86 S 13 20 30.32 1027 2 3.21868 0.07 1.778
9:35 am 09:35 Cloudy with Light Rain 36 2.2 32 0 86 86 SSE 13 20 30.32 1027 5 8.0467 0.07 1.778
9:50 am 09:50 Cloudy with Light Rain 37 3 34 1 87 87 SSE 9 15 30.32 1027 10 16.0934 0.08 2.032
9:54 am 09:54 Cloudy with Light Rain 37 2.8 33 0.6 86 86 SSE 10 17 30.3 1026 4 6.43736 0.08 2.032
9:59 am 09:59 Cloudy with Heavy Rain 36 2.2 33 0.6 89 89 SSE 9 15 30.31 1026 2.5 4.02335 0.01 0.254
10:07 am 10:07 Cloudy with Light Rain 36 2.2 33 0.6 89 89 SE 6 9 30.31 1026 3 4.82802 0.03 0.762
10:54 am 10:54 Cloudy with Light Rain 38 3.3 34 1.1 86 86 SSE 12 19 30.29 1026 10 16.0934 0.04 1.016
11:54 am 11:54 Cloudy 39 3.9 34 1.1 82 82 SSE 21 33 30.24 1024 10 16.0934 0.03 0.762
12:45 pm 12:45 Cloudy with Light Rain 38 3.3 34 1.1 86 86 SSE 15 24 30.22 1023 9 14.48406 0.001 0.001
12:54 pm 12:54 Cloudy with Light Rain 38 3.3 34 1.1 86 86 SSE 17 28 30.21 1023 9 14.48406 0.001 0.001
1:08 pm 13:08 Cloudy with Light Rain 38 3.3 34 1.1 86 86 SE 15 24 30.2 1023 6 9.65604 0.001 0.001
1:37 pm 13:37 Cloudy 39 3.9 34 1.1 82 82 SE 17 28 30.18 1022 10 16.0934 0.001 0.001
1:54 pm 13:54 Cloudy 39 3.9 35 1.7 86 86 SE 16 26 30.16 1022 10 16.0934 0.001 0.001
2:54 pm 14:54 Cloudy 38 3.3 34 1.1 86 86 SE 16 26 30.14 1021 10 16.0934 0 0
3:54 pm 15:54 Cloudy 38 3.3 33 0.6 83 83 SE 21 33 30.11 1020 10 16.0934 0 0
4:24 pm 16:24 Cloudy 38 3.3 33 0.6 83 83 SE 16 26 30.1 1019 10 16.0934 0 0
4:54 pm 16:54 Cloudy 38 3.3 33 0.6 83 83 SE 17 28 30.1 1019 10 16.0934 0 0
5:54 pm 17:54 Cloudy 38 3.3 32 0 79 79 SE 16 26 30.08 1019 10 16.0934 0 0
6:27 pm 18:27 Cloudy 38 3.3 32 0 79 79 SE 16 26 30.07 1018 10 16.0934 0 0
6:54 pm 18:54 Cloudy 37 2.8 32 0 82 82 SE 16 26 30.06 1018 10 16.0934 0 0
7:54 pm 19:54 Cloudy with Mist and Fog 37 2.8 33 0.6 86 86 SE 15 24 30.04 1017 4 6.43736 0 0
8:46 pm 20:46 Cloudy with Mist and Fog 37 2.8 34 1.1 89 89 SE 13 20 30.04 1017 5 8.0467 0 0
8:54 pm 20:54 Cloudy with Mist and Fog 37 2.8 34 1.1 89 89 SE 14 22 30.02 1017 6 9.65604 0 0
9:54 pm 21:54 Cloudy 38 3.3 34 1.1 86 86 SE 14 22 30 1016 10 16.0934 0 0
10:54 pm 22:54 Cloudy with Mist and Fog 38 3.3 34 1.1 86 86 SE 14 22 29.98 1015 4 6.43736 0 0
11:02 pm 23:02 Cloudy with Mist and Fog 38 3.3 35 1.7 89 89 SE 12 19 30 1016 3 4.82802 0 0
11:15 pm 23:15 Cloudy with Mist and Fog 38 3.3 35 1.7 89 89 SSE 13 20 29.99 1016 2.5 4.02335 0 0
11:54 pm 23:54 Cloudy with Mist and Fog 38 3.3 36 2.2 93 93 SSE 12 19 29.95 1014 3 4.82802 0.01 0.254

Powered by AerisWeather